This is the latest recevied weather packets stored in our database for station/object W2JGA. If no packets are shown the sender has not sent any weather packets the latest 10 day(s).
| Time | Temp. | Humidity | Pressure | Rain* | Wind** | Luminosity | Snow |
|---|---|---|---|---|---|---|---|
| 1777601762 | 22.78° C | 46% | 1010.3 hPa | 0 mm | - | 0 W/m² | - |
| 1777601458 | 22.78° C | 45% | 1010.3 hPa | 0 mm | - | 0 W/m² | - |
| 1777601154 | 22.78° C | 45% | 1010.3 hPa | 0 mm | - | 0 W/m² | - |
| 1777600851 | 23.33° C | 44% | 1010 hPa | 0 mm | - | 0 W/m² | - |
| 1777600547 | 23.89° C | 43% | 1010 hPa | 0 mm | - | 0 W/m² | - |
| 1777600243 | 23.33° C | 42% | 1010 hPa | 0 mm | - | 0 W/m² | - |
| 1777599938 | 23.89° C | 42% | 1010 hPa | 0 mm | - | 0 W/m² | - |
| 1777599636 | 23.89° C | 42% | 1010 hPa | 0 mm | - | 1 W/m² | - |
| 1777599332 | 24.44° C | 41% | 1010 hPa | 0 mm | - | 2 W/m² | - |
| 1777599029 | 24.44° C | 39% | 1009.5 hPa | 0 mm | - | 3 W/m² | - |
| 1777598726 | 25° C | 38% | 1009.2 hPa | 0 mm | - | 4 W/m² | - |
| 1777598421 | 25.56° C | 35% | 1009.2 hPa | 0 mm | - | 5 W/m² | - |
| 1777598121 | 26.11° C | 33% | 1008.9 hPa | 0 mm | - | 6 W/m² | - |
| 1777597815 | 26.11° C | 32% | 1008.4 hPa | 0 mm | - | 8 W/m² | - |
| 1777597509 | 26.67° C | 32% | 1008.4 hPa | 0 mm | - | 13 W/m² | - |
| 1777597206 | 27.22° C | 30% | 1008.4 hPa | 0 mm | - | 16 W/m² | - |
| 1777596901 | 27.78° C | 30% | 1008.4 hPa | 0 mm | - | 18 W/m² | - |
| 1777596597 | 27.78° C | 31% | 1008.4 hPa | 0 mm | - | 19 W/m² | - |
| 1777596294 | 28.33° C | 30% | 1008.1 hPa | 0 mm | - | 17 W/m² | - |
| 1777595992 | 28.33° C | 28% | 1008.1 hPa | 0 mm | - | 19 W/m² | - |
| 1777595686 | 28.33° C | 27% | 1008.1 hPa | 0 mm | - | 28 W/m² | - |
| 1777595383 | 28.89° C | 27% | 1008.1 hPa | 0 mm | - | 39 W/m² | - |
| 1777595079 | 28.89° C | 26% | 1008.1 hPa | 0 mm | - | 50 W/m² | - |
| 1777594775 | 28.89° C | 26% | 1007.7 hPa | 0 mm | - | 62 W/m² | - |
| 1777594472 | 28.89° C | 25% | 1007.7 hPa | 0 mm | - | 59 W/m² | - |
* Rain latest hour (hover to see other rain measurements)
** Current wind speed in m/s (hover to see current wind gust speed)